Location: Escondida
(34.1015°N, 106.8964°W)
Time: 08:48:28
(UTC+00:00)

Hubble Space Telescope - Visible Passes

Search period start: 09 February 2026 00:00
Search period end: 19 February 2026 00:00
Orbit: 478 x 480 km, 28.5° (Epoch: 8 February)

Date Brightness Start Highest point End Pass type
(mag) Time Alt. Az. Time Alt. Az. Time Alt. Az.
16 Feb 3.0 13:08:08 10° SSW 13:10:40 17° SSE 13:13:14 10° ESE visible
17 Feb 2.9 12:37:52 10° SSW 12:40:25 17° SSE 12:42:58 10° ESE visible
18 Feb 2.7 12:09:07 16° S 12:10:08 17° SSE 12:12:42 10° ESE visible
